Location: Strawberry
(45.6646°N, 111.9596°W)
Time: 16:41:19
(UTC+00:00)

SR - Pass Details

Date: 11 October 2022
Orbit: 577 x 874 km, 66.7° (Epoch: 05 December)

Event Time Altitude Azimuth Distance (km) Brightness Sun altitude
Rises 05:02:56 0° 278° (W) 3,467 ? -42.0°
Reaches altitude 10° 05:06:51 10° 303° (WNW) 2,517 ? -42.5°
Maximum altitude 05:09:46 14° 333° (NNW) 2,234 ? -42.9°
Enters shadow 05:11:34 12° 353° (N) 2,325 ? -43.1°
